Location: Tel Aviv
(32.0670°N, 34.7670°E)
Time: 19:14:33
(UTC+03:00)

Vanguard 2 Rocket - Pass Details

Date: 28 January 2022
Orbit: 553 x 3323 km, 32.9° (Epoch: 24 May)

Event Time Altitude Azimuth Distance (km) Brightness Sun altitude
Exits shadow 00:31:11 22° 79° (ENE) 5,030 10.6 -73.8°
Drops below altitude 10° 00:36:14 10° 76° (ENE) 6,170 11.2 -73.2°
Sets 00:41:24 0° 75° (ENE) 7,298 11.7 -72.5°
